Weather History for Kodiak, AK

Change the Weather History Date:

Friday, November 2, 2012

  Actual Average Record
Temperature  
Mean Temperature 42 °F 36 °F  
Max Temperature 45 °F 42 °F 50 °F (1979)
Min Temperature 38 °F 31 °F 11 °F (1985)
Degree Days  
Heating Degree Days 23 29  
Month to date heating degree days 57 58  
Since 1 July heating degree days 2071 1916  
Cooling Degree Days 0    
Month to date cooling degree days 0  
Year to date cooling degree days 0  
Moisture  
Dew Point 36 °F    
Average Humidity 0    
Maximum Humidity 0    
Minimum Humidity 0    
Precipitation  
Precipitation 1.08 in 0.23 in 1.98 in (1998)
Month to date precipitation 1.19 0.47  
Year to date precipitation 48.95 62.87  
Snow  
Snow T in 0.10 in 3.70 in (1965)
Month to date snowfall 0.3 0.2  
Since 1 July snowfall 0.7 1.3  
Since 1 September snowfall 0.7 1.3  
Snow Depth 0.00 in    
Sea Level Pressure  
Sea Level Pressure 29.03 in    
Wind  
Wind Speed 23 mph (NNE)    
Max Wind Speed 48 mph    
Max Gust Speed 63 mph    
Visibility 7 miles    
Events Rain , Snow    
T = Trace of Precipitation, MM = Missing Value Source: NWS Daily Summary

Daily Weather History Graph

Daily Weather History Graph

Search for Another Location

Airport:

Trip Planner

Search our weather history database for the weather conditions in past years. The results will help you decide how hot, cold, wet, or windy it might be!

Date:

Astronomy

Nov. 02, 2012 Rise Set
Actual Time 9:27 AM AKDT 6:18 PM AKDT
Civil Twilight 8:44 AM AKDT 7:01 PM AKDT
Nautical Twilight 7:58 AM AKDT 7:47 PM AKDT
Astronomical Twilight 7:13 AM AKDT 8:32 PM AKDT
Moon 8:47 PM AKDT (11/2) 1:24 PM AKDT (11/2)
Length of Visible Light 10h 16m
Length of Day
8h 51m
Waning Gibbous, 86% of the Moon is Illuminated
Nov 2
Waning Gibbous
Nov 6
Last Quarter
Nov 13
New
Nov 20
First Quarter
Nov 28
Full

Hourly Weather History & Observations

Time (AKDT) Temp. Windchill Dew Point Humidity Pressure Visibility Wind Dir Wind Speed Gust Speed Precip Events Conditions
12:53 AM 41.0 °F 28.8 °F 35.1 °F 79% 29.24 in 10.0 mi NNE 36.8 mph 56.4 mph 0.01 in   Overcast
1:03 AM 41.0 °F 28.5 °F 33.8 °F 76% 29.24 in 10.0 mi NNE 39.1 mph 54.1 mph N/A   Overcast
1:15 AM 41.0 °F 29.0 °F 33.8 °F 76% 29.23 in 10.0 mi NNE 35.7 mph 50.6 mph N/A   Overcast
1:53 AM 41.0 °F 28.8 °F 34.0 °F 76% 29.21 in 9.0 mi NNE 36.8 mph 51.8 mph 0.00 in   Overcast
2:53 AM 42.1 °F 29.8 °F 34.0 °F 73% 29.17 in 10.0 mi NNE 40.3 mph 51.8 mph 0.00 in Rain Light Rain
3:08 AM 41.0 °F 28.3 °F 35.6 °F 81% 29.16 in 6.0 mi NNE 40.3 mph 55.2 mph 0.00 in   Haze
3:53 AM 41.0 °F 28.3 °F 35.1 °F 79% 29.13 in 8.0 mi NNE 40.3 mph 59.8 mph 0.00 in   Overcast
4:40 AM 42.8 °F 30.8 °F 35.6 °F 76% 29.09 in 6.0 mi NNE 40.3 mph 58.7 mph 0.00 in   Haze
4:53 AM 41.0 °F 28.5 °F 35.1 °F 79% 29.09 in 5.0 mi NNE 39.1 mph 56.4 mph 0.00 in Rain Light Rain
5:53 AM 41.0 °F 29.0 °F 36.0 °F 82% 29.07 in 5.0 mi NNE 35.7 mph 54.1 mph 0.04 in Rain Light Rain
6:53 AM 41.0 °F 29.7 °F 37.0 °F 86% 29.03 in 7.0 mi NNE 31.1 mph 50.6 mph 0.03 in Rain Light Rain
7:53 AM 39.9 °F 29.2 °F 37.4 °F 91% 29.00 in 3.0 mi North 25.3 mph 51.8 mph 0.09 in Rain Rain
8:34 AM 39.2 °F 27.8 °F 39.2 °F 100% 28.98 in 3.0 mi North 27.6 mph 48.3 mph 0.09 in Rain Heavy Rain
8:53 AM 39.9 °F 29.5 °F 39.0 °F 97% 28.98 in 3.0 mi NNE 24.2 mph 35.7 mph 0.14 in Rain Heavy Rain
9:53 AM 39.9 °F 29.2 °F 36.0 °F 86% 28.96 in 3.0 mi NNE 25.3 mph 43.7 mph 0.19 in Rain Heavy Rain
10:46 AM 39.2 °F 27.2 °F 35.6 °F 87% 28.95 in 2.0 mi NNE 31.1 mph 46.0 mph 0.17 in Rain Heavy Rain
10:53 AM 39.9 °F 28.4 °F 36.0 °F 86% 28.95 in 2.0 mi NNE 29.9 mph 49.5 mph 0.20 in Rain Rain
11:53 AM 39.0 °F 28.5 °F 36.0 °F 89% 28.94 in 2.0 mi North 23.0 mph 42.6 mph 0.16 in Rain Rain
12:15 PM 39.2 °F 29.6 °F 37.4 °F 93% 28.93 in 5.0 mi North 19.6 mph 43.7 mph 0.07 in Rain Rain
12:53 PM 41.0 °F 36.4 °F 37.0 °F 86% 28.94 in 10.0 mi North 6.9 mph - 0.09 in   Overcast
1:19 PM 44.6 °F 37.2 °F 37.4 °F 76% 28.93 in 10.0 mi NNE 17.3 mph 25.3 mph N/A   Mostly Cloudy
1:53 PM 44.1 °F 35.7 °F 39.0 °F 82% 28.94 in 8.0 mi NNE 20.7 mph - N/A   Mostly Cloudy
2:53 PM 42.1 °F 36.6 °F 37.0 °F 82% 28.95 in 5.0 mi NE 9.2 mph - 0.03 in Rain Light Rain
3:53 PM 37.9 °F 29.2 °F 33.1 °F 83% 28.96 in 5.0 mi NNE 15.0 mph 26.5 mph 0.08 in Rain , Snow Light Rain
4:06 PM 39.2 °F 32.5 °F 35.6 °F 87% 28.96 in 7.0 mi NNE 10.4 mph - 0.00 in Rain Light Rain
4:53 PM 39.9 °F 32.1 °F 35.1 °F 83% 28.98 in 8.0 mi NNE 13.8 mph - 0.01 in Rain Light Rain
5:53 PM 41.0 °F 31.4 °F 36.0 °F 82% 29.00 in 8.0 mi NE 21.9 mph 29.9 mph 0.00 in Rain Light Rain
6:53 PM 42.1 °F 33.9 °F 35.1 °F 76% 29.01 in 10.0 mi NE 17.3 mph 26.5 mph 0.00 in   Mostly Cloudy
7:53 PM 41.0 °F 33.9 °F 35.1 °F 79% 29.01 in 10.0 mi North 12.7 mph 20.7 mph N/A   Mostly Cloudy
8:31 PM 42.8 °F 35.8 °F 35.6 °F 76% 29.02 in 10.0 mi NNE 13.8 mph 24.2 mph N/A   Mostly Cloudy
8:48 PM 41.0 °F 33.1 °F 33.8 °F 76% 29.02 in 10.0 mi North 15.0 mph 23.0 mph N/A   Scattered Clouds
8:53 PM 41.0 °F 32.2 °F 34.0 °F 76% 29.02 in 10.0 mi North 18.4 mph 24.2 mph N/A   Mostly Cloudy
9:53 PM 41.0 °F 32.5 °F 35.1 °F 79% 29.02 in 10.0 mi North 17.3 mph 25.3 mph 0.02 in   Mostly Cloudy
10:21 PM 42.8 °F 34.0 °F 35.6 °F 76% 29.02 in 10.0 mi NNE 20.7 mph 28.8 mph 0.00 in Rain Light Rain
10:37 PM 42.8 °F 34.8 °F 35.6 °F 76% 29.02 in 10.0 mi NNE 17.3 mph 27.6 mph 0.00 in   Overcast
10:53 PM 42.1 °F 33.9 °F 36.0 °F 79% 29.03 in 10.0 mi North 17.3 mph 25.3 mph 0.00 in   Overcast
11:53 PM 42.1 °F 33.3 °F 35.1 °F 76% 29.04 in 10.0 mi North 19.6 mph 27.6 mph N/A   Mostly Cloudy